DW6277 Weather Reports


Display with metric or nautical units.
time (UTC)temp
F
wind
direction
speed
MPH
gust
MPH
rain 1hr
in
rain 24hr
in
rain mn
in
humidity
%
barometer
mb
20260510041046 71 193 5.0 10.0 0.00 0.00 0.00 72 1026.5
20260510040100 71 180 6.0 12.0 0.00 0.00 0.00 70 1026.6
20260510035107 72 180 5.0 14.0 0.00 0.00 0.00 72 1026.5
20260510034042 71 179 6.0 14.0 0.00 0.00 0.00 71 1026.5
20260510033026 71 193 6.0 10.0 0.00 0.00 0.00 71 1026.5
20260510032029 70 219 5.0 9.0 0.00 0.00 0.00 72 1026.7
20260510030956 70 187 5.0 10.0 0.00 0.00 0.00 71 1026.7
20260510025954 70 180 5.0 10.0 0.00 0.00 0.00 70 1026.8
20260510024944 70 146 5.0 11.0 0.00 0.00 0.00 70 1026.9
20260510023933 70 190 4.0 11.0 0.00 0.00 0.00 71 1027.0
20260510022915 70 177 5.0 10.0 0.00 0.00 0.00 71 1027.1
20260510021921 70 148 5.0 10.0 0.00 0.00 0.00 71 1027.2
20260510020911 71 152 5.0 10.0 0.00 0.00 0.00 68 1027.3
20260510015837 71 144 5.0 9.0 0.00 0.00 0.00 68 1027.4
20260510014834 71 134 5.0 9.0 0.00 0.00 0.00 69 1027.6
20260510013812 71 152 4.0 8.0 0.00 0.00 0.00 70 1027.6
20260510011708 71 165 5.0 10.0 0.00 0.00 0.00 68 1027.8
20260510010709 72 157 3.0 9.0 0.00 0.00 0.00 65 1027.9
20260510004449 71 175 4.0 8.0 0.00 0.00 0.00 69 1028.2
20260510003511 70 176 4.0 8.0 0.00 0.00 0.00 69 1028.2
20260510002447 70 168 3.0 8.0 0.00 0.00 0.00 65 1028.3
20260510001425 71 179 2.0 4.0 0.00 0.00 0.00 68 1028.2
20260510000443 72 181 0.0 2.0 0.00 0.00 0.00 71 1028.1
20260509235450 70 0 0.0 2.0 0.00 0.00 0.00 76 1028.0
20260509234458 69 37 0.0 3.0 0.00 0.00 0.00 78 1028.0
20260509233515 67 347 0.0 0.0 0.00 0.00 0.00 79 1027.9
20260509232519 65 30 0.0 3.0 0.00 0.00 0.00 82 1027.9
20260509231540 63 333 1.0 3.0 0.00 0.00 0.00 83 1027.9
20260509230551 62 310 0.0 3.0 0.00 0.00 0.00 85 1027.9
20260509225528 61 335 0.0 3.0 0.00 0.00 0.00 87 1027.8
20260509224530 60 304 0.0 4.0 0.00 0.00 0.00 88 1027.7
20260509223459 59 326 0.0 6.0 0.00 0.00 0.00 90 1027.8
20260509222451 57 315 2.0 6.0 0.00 0.00 0.00 91 1027.8
20260509221511 56 318 2.0 7.0 0.00 0.00 0.00 91 1027.7
20260509220525 55 281 3.0 7.0 0.00 0.00 0.00 92 1027.7
20260509215456 54 312 3.0 6.0 0.00 0.00 0.00 92 1027.6
20260509214446 54 338 3.0 6.0 0.00 0.00 0.00 92 1027.5
20260509213417 53 318 4.0 7.0 0.00 0.00 0.00 93 1027.4
20260509212428 52 335 4.0 7.0 0.00 0.00 0.00 93 1027.3
20260509211452 52 328 4.0 6.0 0.00 0.00 0.00 93 1027.1
20260509210424 52 308 4.0 7.0 0.00 0.00 0.00 93 1027.1
20260509205352 51 315 4.0 7.0 0.00 0.00 0.00 92 1027.0
20260509203247 52 352 2.0 5.0 0.00 0.00 0.00 91 1026.7
20260509202311 52 316 2.0 5.0 0.00 0.00 0.00 91 1026.6
20260509201253 52 318 2.0 5.0 0.00 0.00 0.00 90 1026.4
20260509200234 53 319 1.0 4.0 0.00 0.00 0.00 90 1026.3
20260509195221 53 334 1.0 3.0 0.00 0.00 0.00 89 1026.3
20260509194211 53 341 1.0 3.0 0.00 0.00 0.00 89 1026.1
20260509193232 54 328 1.0 3.0 0.00 0.00 0.00 88 1026.0
20260509191031 55 304 0.0 2.0 0.00 0.00 0.00 87 1025.7
20260509190033 56 314 0.0 2.0 0.00 0.00 0.00 86 1025.6
20260509185031 57 312 0.0 2.0 0.00 0.00 0.00 85 1025.5
20260509184006 58 309 0.0 2.0 0.00 0.00 0.00 84 1025.4
20260509182932 60 282 0.0 1.0 0.00 0.00 0.00 84 1025.3
20260509181942 60 236 1.0 5.0 0.00 0.00 0.00 85 1025.2
20260509175801 60 240 2.0 6.0 0.00 0.00 0.00 87 1025.0
20260509174732 60 257 3.0 6.0 0.00 0.00 0.00 88 1025.0
20260509173721 59 231 3.0 6.0 0.00 0.00 0.00 89 1024.9
20260509172651 58 243 1.0 5.0 0.00 0.00 0.00 90 1024.9
20260509171652 57 265 0.0 3.0 0.00 0.00 0.00 91 1024.9
20260509170714 56 266 0.0 3.0 0.00 0.00 0.00 92 1024.9
20260509165727 55 321 0.0 2.0 0.00 0.00 0.00 90 1024.9
20260509164722 55 321 0.0 2.0 0.00 0.00 0.00 90 1024.9
20260509163653 55 336 0.0 1.0 0.00 0.00 0.00 89 1024.9
20260509162715 56 336 0.0 1.0 0.00 0.00 0.00 89 1025.0
20260509161706 56 335 0.0 3.0 0.00 0.00 0.00 89 1025.0
20260509160642 56 352 0.0 3.0 0.00 0.00 0.00 89 1025.0
20260509155644 56 310 0.0 3.0 0.00 0.00 0.00 89 1025.0
20260509154707 56 310 0.0 0.0 0.00 0.00 0.00 88 1024.9
20260509153726 57 304 0.0 3.0 0.00 0.00 0.00 88 1024.9
20260509152707 57 307 0.0 3.0 0.00 0.00 0.00 87 1025.0
20260509151656 57 327 0.0 4.0 0.00 0.00 0.00 87 1025.0
20260509150621 57 335 0.0 2.0 0.00 0.00 0.00 87 1025.0
20260509145623 57 309 0.0 4.0 0.00 0.00 0.00 87 1024.9
20260509144643 58 316 0.0 2.0 0.00 0.00 0.00 86 1024.8
20260509143703 58 314 0.0 3.0 0.00 0.00 0.00 86 1024.8
20260509142630 58 316 0.0 3.0 0.00 0.00 0.00 85 1024.9
20260509141602 59 310 0.0 4.0 0.00 0.00 0.00 84 1024.8
20260509140536 59 259 0.0 4.0 0.00 0.00 0.00 86 1024.8
20260509135504 58 313 0.0 1.0 0.00 0.00 0.00 84 1024.8
20260509133328 59 327 0.0 1.0 0.00 0.00 0.00 83 1025.0
20260509132310 59 317 0.0 1.0 0.00 0.00 0.00 83 1025.0
20260509131243 59 317 0.0 0.0 0.00 0.00 0.00 82 1025.0
20260509130236 60 314 0.0 1.0 0.00 0.00 0.00 82 1025.0
20260509125213 60 314 0.0 2.0 0.00 0.00 0.00 81 1025.0
20260509124146 61 304 0.0 0.0 0.00 0.00 0.00 81 1024.9
20260509123149 61 302 0.0 2.0 0.00 0.00 0.00 80 1024.9
20260509122209 63 300 0.0 0.0 0.00 0.00 0.00 79 1025.0
20260509121214 63 233 0.0 3.0 0.00 0.00 0.00 80 1025.0
20260509120147 63 218 1.0 4.0 0.00 0.00 0.00 80 1025.1
20260509115141 63 181 2.0 4.0 0.00 0.00 0.00 80 1025.0
20260509114134 63 190 1.0 3.0 0.00 0.00 0.00 80 1025.0
20260509113158 63 250 1.0 4.0 0.00 0.00 0.00 79 1025.0
20260509112128 63 237 2.0 4.0 0.00 0.00 0.00 78 1025.0
20260509111141 64 247 1.0 3.0 0.00 0.00 0.00 76 1025.0
20260509110107 64 246 0.0 2.0 0.00 0.00 0.00 75 1025.0
20260509105105 65 195 0.0 1.0 0.00 0.00 0.00 74 1024.9
20260509103003 67 179 3.0 7.0 0.00 0.00 0.00 72 1024.8
20260509101947 66 153 3.0 7.0 0.00 0.00 0.00 74 1024.7
20260509100934 66 143 1.0 6.0 0.00 0.00 0.00 75 1024.6
20260509095936 66 224 2.0 6.0 0.00 0.00 0.00 74 1024.6
20260509094934 66 148 1.0 6.0 0.00 0.00 0.00 74 1024.5
20260509093904 67 191 3.0 6.0 0.00 0.00 0.00 73 1024.6
20260509092832 67 149 3.0 7.0 0.00 0.00 0.00 73 1024.5
20260509091801 67 136 3.0 7.0 0.00 0.00 0.00 73 1024.4
20260509083351 67 168 3.0 9.0 0.00 0.00 0.00 73 1024.0
20260509082354 67 141 4.0 9.0 0.00 0.00 0.00 74 1023.9
20260509081334 67 111 3.0 9.0 0.00 0.00 0.00 72 1023.8
20260509080327 67 141 4.0 9.0 0.00 0.00 0.00 71 1023.6
20260509075308 67 176 4.0 9.0 0.00 0.00 0.00 72 1023.5
20260509074304 67 151 4.0 8.0 0.00 0.00 0.00 72 1023.4
20260509073324 67 113 4.0 10.0 0.00 0.00 0.00 69 1023.3
20260509072343 67 167 4.0 10.0 0.00 0.00 0.00 70 1023.2
20260509071310 67 168 5.0 9.0 0.00 0.00 0.00 70 1023.1
20260509070325 67 172 5.0 11.0 0.00 0.00 0.00 72 1023.0
20260509065331 67 190 5.0 11.0 0.00 0.00 0.00 70 1022.8
20260509064344 67 152 5.0 10.0 0.00 0.00 0.00 71 1022.8
20260509063341 68 179 5.0 12.0 0.00 0.00 0.00 70 1022.7
20260509062320 68 167 4.0 12.0 0.00 0.00 0.00 70 1022.6
20260509061334 68 138 5.0 9.0 0.00 0.00 0.00 69 1022.5
20260509060339 68 144 5.0 9.0 0.00 0.00 0.00 68 1022.5
20260509055325 68 141 4.0 8.0 0.00 0.00 0.00 66 1022.5
20260509054301 68 143 5.0 10.0 0.00 0.00 0.00 68 1022.4
20260509053242 68 165 4.0 9.0 0.00 0.00 0.00 68 1022.3
20260509052232 69 112 4.0 9.0 0.00 0.00 0.00 66 1022.3
20260509051159 69 113 4.0 9.0 0.00 0.00 0.00 67 1022.2
20260509050202 69 164 4.0 10.0 0.00 0.00 0.00 67 1022.2
20260509045158 69 141 5.0 10.0 0.00 0.00 0.00 65 1022.3
20260509044130 69 199 5.0 9.0 0.00 0.00 0.00 66 1022.3
20260509043153 69 176 6.0 10.0 0.00 0.00 0.00 67 1022.2
20260509042128 69 169 6.0 10.0 0.00 0.00 0.00 68 1022.2